This is the latest recevied weather packets stored in our database for station/object F1AGU-13. If no packets are shown the sender has not sent any weather packets the latest 10 day(s).
| Time | Temp. | Humidity | Pressure | Rain* | Wind** | Luminosity | Snow |
|---|---|---|---|---|---|---|---|
| 1778003717 | 11.67° C | 81% | 1010.3 hPa | 0 mm | - | - | - |
| 1778003117 | 11.67° C | 87% | 1010.1 hPa | 0 mm | - | - | - |
| 1778002517 | 12.22° C | 85% | 1009.9 hPa | 0 mm | - | - | - |
| 1778001917 | 12.78° C | 85% | 1010.2 hPa | 0 mm | - | - | - |
| 1778001317 | 12.78° C | 81% | 1010.1 hPa | 0 mm | - | - | - |
| 1778000717 | 12.78° C | 78% | 1010.2 hPa | 0 mm | - | - | - |
| 1778000116 | 13.33° C | 75% | 1010.2 hPa | 0 mm | - | - | - |
| 1777999517 | 13.33° C | 73% | 1010.2 hPa | 0 mm | - | - | - |
| 1777998917 | 13.89° C | 73% | 1010.3 hPa | 0 mm | - | - | - |
| 1777998317 | 13.33° C | 76% | 1010.4 hPa | 0 mm | - | - | - |
| 1777997717 | 13.33° C | 79% | 1010.4 hPa | 0 mm | - | - | - |
| 1777997117 | 13.33° C | 78% | 1010.6 hPa | 0 mm | - | - | - |
| 1777996517 | 13.33° C | 75% | 1010.7 hPa | 0 mm | - | - | - |
| 1777995916 | 13.33° C | 74% | 1010.8 hPa | 0 mm | - | - | - |
| 1777995316 | 13.33° C | 75% | 1010.8 hPa | 0 mm | - | - | - |
| 1777994716 | 13.89° C | 76% | 1010.8 hPa | 0 mm | - | - | - |
| 1777994117 | 13.33° C | 77% | 1010.8 hPa | 0 mm | - | - | - |
| 1777993516 | 13.33° C | 79% | 1010.8 hPa | 0 mm | - | - | - |
| 1777992916 | 13.33° C | 78% | 1010.8 hPa | 0 mm | - | - | - |
| 1777992316 | 13.33° C | 80% | 1010.8 hPa | 0 mm | - | - | - |
| 1777991716 | 13.33° C | 81% | 1010.9 hPa | 0 mm | - | - | - |
| 1777991116 | 13.33° C | 78% | 1010.9 hPa | 0 mm | - | - | - |
| 1777990516 | 13.33° C | 77% | 1011 hPa | 0 mm | - | - | - |
| 1777989916 | 14.44° C | 79% | 1011.2 hPa | 0 mm | - | - | - |
| 1777989316 | 13.33° C | 78% | 1011.2 hPa | 0 mm | - | - | - |
* Rain latest hour (hover to see other rain measurements)
** Current wind speed in m/s (hover to see current wind gust speed)